Home > Weather > Winston-Salem > Past weeks

Flag for U.S.A. Weather for the Past 2 Weeks in Winston-Salem, North Carolina, U.S.A.

Now
30 °F

Clear.


Feels Like: 30 °F
Forecast: 24 / 40 °F
Wind: No wind

Location: Smith Reynolds Airport

Current Time: Feb 11, 2016 at 11:06:36 PM

Latest Report: Feb 11, 2016 at 9:54 PM


Visibility: 10 mi

Pressure: 30.28 "Hg

Humidity: 33%

Dew point: 4 °F

Location of Winston-SalemLocation

Historic Weather in Winston-Salem — Graph

°F

Winston-Salem Temperature Yesterday

Maximum temperature yesterday: 34 °F (at 12:54 PM)
Minimum temperature yesterday: 22 °F (at 5:54 AM)
Average temperature yesterday: 27 °F

High & Low Weather Summary for the Past Weeks

 TemperatureHumidityPressure
High69 °F (Feb 1, 4:54 PM)100% (Feb 2, 12:02 AM)30.46 "Hg (Feb 2, 12:02 AM)
Low19 °F (Feb 11, 2:54 AM)22% (Feb 5, 3:54 PM)29.62 "Hg (Feb 9, 4:54 AM)
Average42 °F59%30.01 "Hg
* Reported Jan 27 8:54 PM — Feb 11 8:54 PM, Winston-Salem, Weather by CustomWeather, © 2016

Note: Actual official high and low records may vary slightly from our data, if they occured in-between our weather recording intervals... More about our weather records

Advertising

Winston-Salem Weather History for the Previous 24 Hours

 ConditionsComfort  
Time TempWeatherWind HumidityBarometerVisibility
8:54 PM
Thu, Feb 11
30 °FClear.No wind36%30.27 "Hg10 mi
7:54 PM31 °FClear.5 mph36%30.26 "Hg10 mi
6:54 PM34 °FClear.7 mph34%30.22 "Hg10 mi
5:54 PM38 °FSunny.5 mph31%30.19 "Hg10 mi
4:54 PM40 °FSunny.6 mph30%30.16 "Hg10 mi
3:54 PM39 °FSunny.No wind30%30.14 "Hg10 mi
2:54 PM38 °FSunny.8 mph30%30.15 "Hg10 mi
1:54 PM36 °FSunny.10 mph31%30.16 "Hg10 mi
12:54 PM34 °FSunny.10 mph31%30.19 "Hg10 mi
11:54 AM32 °FSunny.6 mph33%30.21 "Hg10 mi
10:54 AM29 °FSunny.8 mph38%30.22 "Hg10 mi
9:54 AM27 °FSunny.10 mph39%30.22 "Hg10 mi
8:54 AM24 °FSunny.8 mph42%30.20 "Hg10 mi
7:54 AM21 °FSunny.5 mph45%30.19 "Hg10 mi
6:54 AM20 °FClear.5 mph45%30.17 "Hg10 mi
5:54 AM20 °FClear.3 mph45%30.15 "Hg10 mi
4:54 AM20 °FClear.6 mph43%30.13 "Hg10 mi
3:54 AM20 °FClear.3 mph43%30.11 "Hg10 mi
2:54 AM19 °FClear.3 mph45%30.09 "Hg10 mi
1:54 AM21 °FClear.6 mph41%30.09 "Hg10 mi
12:54 AM22 °FClear.10 mph38%30.09 "Hg10 mi
11:54 PM
Wed, Feb 10
23 °FClear.8 mph42%30.08 "Hg10 mi
Weather by CustomWeather, © 2016

See weather overviewHow to use our weather pages